Time,TemperatureF,DewpointF,PressureIn,WindDirection,WindDirectionDegrees,WindSpeedMPH,WindSpeedGustMPH,Humidity,HourlyPrecipIn,Conditions,Clouds,dailyrainin,SoftwareType,DateUTC
2013-02-23 00:03:00,34.0,28.0,30.28,ENE,72,1.0,3.0,77,0.00,,,0.00,,2013-02-23 05:03:00,
2013-02-23 00:12:00,34.0,28.0,30.28,ENE,72,1.0,3.0,77,0.00,,,0.00,,2013-02-23 05:12:00,
2013-02-23 00:23:00,34.0,28.0,30.27,East,88,1.0,5.0,78,0.00,,,0.00,,2013-02-23 05:23:00,
2013-02-23 00:33:00,34.0,28.0,30.27,East,84,2.0,4.0,78,0.00,,,0.00,,2013-02-23 05:33:00,
2013-02-23 00:42:00,34.0,28.0,30.27,East,84,2.0,4.0,78,0.00,,,0.00,,2013-02-23 05:42:00,
2013-02-23 00:52:00,34.0,28.0,30.26,East,84,3.0,5.0,78,0.00,,,0.00,,2013-02-23 05:52:00,
2013-02-23 01:02:00,34.0,28.0,30.27,ENE,68,2.0,4.0,79,0.00,,,0.00,,2013-02-23 06:02:00,
2013-02-23 01:11:00,34.0,28.0,30.27,ENE,68,2.0,4.0,79,0.00,,,0.00,,2013-02-23 06:11:00,
2013-02-23 01:23:00,34.0,28.0,30.27,ENE,68,0.0,2.0,78,0.00,,,0.00,,2013-02-23 06:23:00,
2013-02-23 01:32:00,34.0,28.0,30.26,ENE,68,0.0,3.0,79,0.00,,,0.00,,2013-02-23 06:32:00,
2013-02-23 01:42:00,34.0,28.0,30.26,ENE,68,0.0,3.0,79,0.00,,,0.00,,2013-02-23 06:42:00,
2013-02-23 01:51:00,34.0,28.0,30.27,ENE,68,0.0,3.0,78,0.00,,,0.00,,2013-02-23 06:51:00,
2013-02-23 02:01:00,34.0,28.0,30.27,ENE,68,1.0,3.0,79,0.00,,,0.00,,2013-02-23 07:01:00,
2013-02-23 02:11:00,34.0,28.0,30.27,ENE,68,1.0,3.0,79,0.00,,,0.00,,2013-02-23 07:11:00,
2013-02-23 02:21:00,34.0,28.0,30.27,ESE,116,0.0,4.0,79,0.00,,,0.00,,2013-02-23 07:21:00,
2013-02-23 02:32:00,34.0,28.0,30.25,East,98,1.0,3.0,79,0.00,,,0.00,,2013-02-23 07:32:00,
2013-02-23 02:42:00,34.0,28.0,30.25,East,98,1.0,3.0,79,0.00,,,0.00,,2013-02-23 07:42:00,
2013-02-23 02:52:00,34.0,28.0,30.25,East,90,1.0,3.0,80,0.00,,,0.00,,2013-02-23 07:52:00,
2013-02-23 03:01:00,34.0,28.0,30.24,ENE,69,2.0,5.0,80,0.00,,,0.00,,2013-02-23 08:01:00,
2013-02-23 03:11:00,34.0,28.0,30.24,ENE,69,2.0,5.0,80,0.00,,,0.00,,2013-02-23 08:11:00,
2013-02-23 03:21:00,34.0,28.0,30.24,ESE,108,1.0,3.0,80,0.00,,,0.00,,2013-02-23 08:21:00,
2013-02-23 03:32:00,34.0,29.0,30.23,ESE,109,3.0,6.0,81,0.00,,,0.00,,2013-02-23 08:32:00,
2013-02-23 03:42:00,34.0,29.0,30.23,ESE,109,3.0,6.0,81,0.00,,,0.00,,2013-02-23 08:42:00,
2013-02-23 03:52:00,34.0,29.0,30.22,ESE,115,3.0,8.0,82,0.00,,,0.00,,2013-02-23 08:52:00,
2013-02-23 04:02:00,34.0,29.0,30.22,NE,45,3.0,9.0,83,0.00,,,0.00,,2013-02-23 09:02:00,
2013-02-23 04:11:00,34.0,29.0,30.22,NE,45,3.0,9.0,83,0.00,,,0.00,,2013-02-23 09:11:00,
2013-02-23 04:22:00,34.0,29.0,30.22,ESE,122,3.0,7.0,83,0.00,,,0.00,,2013-02-23 09:22:00,
2013-02-23 04:32:00,34.0,29.0,30.22,ESE,121,4.0,8.0,83,0.00,,,0.00,,2013-02-23 09:32:00,
2013-02-23 04:42:00,34.0,29.0,30.22,ESE,121,4.0,8.0,83,0.00,,,0.00,,2013-02-23 09:42:00,
2013-02-23 04:52:00,34.0,30.0,30.22,SE,127,3.0,7.0,84,0.00,,,0.00,,2013-02-23 09:52:00,
2013-02-23 05:01:00,34.0,30.0,30.22,SE,136,2.0,4.0,85,0.00,,,0.00,,2013-02-23 10:01:00,
2013-02-23 05:11:00,34.0,30.0,30.22,SE,136,2.0,4.0,85,0.00,,,0.00,,2013-02-23 10:11:00,
2013-02-23 05:21:00,35.0,31.0,30.22,East,86,2.0,5.0,85,0.00,,,0.00,,2013-02-23 10:21:00,
2013-02-23 05:32:00,35.0,31.0,30.21,SE,131,2.0,8.0,86,0.00,,,0.00,,2013-02-23 10:32:00,
2013-02-23 05:42:00,35.0,31.0,30.21,SE,131,2.0,8.0,86,0.00,,,0.00,,2013-02-23 10:42:00,
2013-02-23 05:51:00,35.0,32.0,30.20,ENE,61,3.0,8.0,87,0.00,,,0.00,,2013-02-23 10:51:00,
2013-02-23 06:02:00,35.0,31.0,30.20,WSW,247,4.0,10.0,86,0.00,,,0.00,,2013-02-23 11:02:00,
2013-02-23 06:11:00,35.0,31.0,30.20,WSW,247,4.0,10.0,86,0.00,,,0.00,,2013-02-23 11:11:00,
2013-02-23 06:22:00,35.0,32.0,30.19,East,90,3.0,11.0,87,0.00,,,0.00,,2013-02-23 11:22:00,
2013-02-23 06:32:00,35.0,32.0,30.18,SE,140,4.0,9.0,87,0.00,,,0.00,,2013-02-23 11:32:00,
2013-02-23 06:42:00,35.0,32.0,30.18,SE,140,4.0,9.0,87,0.00,,,0.00,,2013-02-23 11:42:00,
2013-02-23 06:52:00,35.0,32.0,30.18,SE,142,4.0,10.0,87,0.00,,,0.00,,2013-02-23 11:52:00,
2013-02-23 07:02:00,35.0,32.0,30.19,East,96,4.0,12.0,88,0.00,,,0.00,,2013-02-23 12:02:00,
2013-02-23 07:11:00,35.0,32.0,30.19,East,96,4.0,12.0,88,0.00,,,0.00,,2013-02-23 12:11:00,
2013-02-23 07:21:00,36.0,33.0,30.19,SSE,163,4.0,11.0,88,0.00,,,0.00,,2013-02-23 12:21:00,
2013-02-23 07:32:00,36.0,33.0,30.19,SSE,152,3.0,9.0,88,0.00,,,0.00,,2013-02-23 12:32:00,
2013-02-23 07:42:00,36.0,33.0,30.19,SSE,152,3.0,9.0,88,0.00,,,0.00,,2013-02-23 12:42:00,
2013-02-23 07:52:00,36.0,33.0,30.18,ENE,72,5.0,12.0,88,0.00,,,0.00,,2013-02-23 12:52:00,
2013-02-23 08:02:00,36.0,33.0,30.19,NE,41,4.0,10.0,87,0.00,,,0.00,,2013-02-23 13:02:00,
2013-02-23 08:11:00,36.0,33.0,30.19,NE,41,4.0,10.0,87,0.00,,,0.00,,2013-02-23 13:11:00,
2013-02-23 08:22:00,36.0,33.0,30.19,NW,325,4.0,11.0,87,0.00,,,0.00,,2013-02-23 13:22:00,
2013-02-23 08:32:00,36.0,33.0,30.19,North,11,5.0,11.0,88,0.00,,,0.00,,2013-02-23 13:32:00,
2013-02-23 08:42:00,36.0,33.0,30.19,North,11,5.0,11.0,88,0.00,,,0.00,,2013-02-23 13:42:00,
2013-02-23 08:52:00,36.0,33.0,30.18,SSE,152,4.0,10.0,89,0.00,,,0.00,,2013-02-23 13:52:00,
2013-02-23 09:02:00,36.0,33.0,30.17,East,98,4.0,8.0,89,0.00,,,0.00,,2013-02-23 14:02:00,
2013-02-23 09:11:00,36.0,33.0,30.17,East,98,4.0,8.0,89,0.00,,,0.00,,2013-02-23 14:11:00,
2013-02-23 09:22:00,37.0,34.0,30.17,SSW,206,6.0,11.0,88,0.00,,,0.00,,2013-02-23 14:22:00,
2013-02-23 09:32:00,37.0,34.0,30.16,WNW,287,5.0,10.0,87,0.00,,,0.00,,2013-02-23 14:32:00,
2013-02-23 09:42:00,37.0,34.0,30.16,WNW,287,5.0,10.0,87,0.00,,,0.00,,2013-02-23 14:42:00,
2013-02-23 09:52:00,37.0,34.0,30.16,NNW,332,4.0,11.0,87,0.00,,,0.00,,2013-02-23 14:52:00,
2013-02-23 10:02:00,37.0,33.0,30.16,SSE,167,5.0,14.0,86,0.00,,,0.00,,2013-02-23 15:02:00,
2013-02-23 10:11:00,37.0,33.0,30.16,SSE,167,5.0,14.0,86,0.00,,,0.00,,2013-02-23 15:11:00,
2013-02-23 10:22:00,37.0,33.0,30.16,NNW,346,5.0,14.0,86,0.00,,,0.00,,2013-02-23 15:22:00,
2013-02-23 10:32:00,37.0,33.0,30.16,NNE,23,6.0,13.0,85,0.00,,,0.00,,2013-02-23 15:32:00,
2013-02-23 10:42:00,37.0,33.0,30.16,NNE,23,6.0,13.0,85,0.00,,,0.00,,2013-02-23 15:42:00,
2013-02-23 10:52:00,37.0,33.0,30.16,NNE,23,6.0,13.0,85,0.00,,,0.00,,2013-02-23 15:52:00,
2013-02-23 11:01:00,37.0,32.0,30.14,NW,316,6.0,14.0,83,0.00,,,0.00,,2013-02-23 16:01:00,
2013-02-23 11:11:00,37.0,32.0,30.14,NW,316,6.0,14.0,83,0.00,,,0.00,,2013-02-23 16:11:00,
2013-02-23 11:22:00,37.0,33.0,30.13,East,82,6.0,17.0,84,0.00,,,0.00,,2013-02-23 16:22:00,
2013-02-23 11:32:00,37.0,33.0,30.12,SE,131,5.0,13.0,84,0.00,,,0.00,,2013-02-23 16:32:00,
2013-02-23 11:42:00,37.0,33.0,30.12,SE,131,5.0,13.0,84,0.00,,,0.00,,2013-02-23 16:42:00,
2013-02-23 11:52:00,37.0,33.0,30.12,SE,131,5.0,13.0,84,0.00,,,0.00,,2013-02-23 16:52:00,
2013-02-23 12:01:00,37.0,33.0,30.12,SE,131,5.0,13.0,84,0.00,,,0.00,,2013-02-23 17:01:00,
2013-02-23 12:22:00,38.0,34.0,30.10,SE,136,7.0,14.0,84,0.00,,,0.00,,2013-02-23 17:22:00,
2013-02-23 12:32:00,38.0,33.0,30.10,East,88,6.0,13.0,83,0.00,,,0.00,,2013-02-23 17:32:00,
2013-02-23 12:42:00,38.0,33.0,30.10,East,88,6.0,13.0,83,0.00,,,0.00,,2013-02-23 17:42:00,
2013-02-23 12:52:00,38.0,33.0,30.10,NNW,335,5.0,12.0,82,0.00,,,0.00,,2013-02-23 17:52:00,
2013-02-23 13:02:00,38.0,33.0,30.09,NNW,346,5.0,14.0,83,0.00,,,0.00,,2013-02-23 18:02:00,
2013-02-23 13:12:00,38.0,33.0,30.09,NNW,346,5.0,14.0,83,0.00,,,0.00,,2013-02-23 18:12:00,
2013-02-23 13:22:00,38.0,34.0,30.09,NW,325,5.0,14.0,84,0.00,,,0.00,,2013-02-23 18:22:00,
2013-02-23 13:32:00,38.0,34.0,30.08,ENE,71,3.0,14.0,85,0.00,,,0.00,,2013-02-23 18:32:00,
2013-02-23 13:42:00,38.0,34.0,30.08,ENE,71,3.0,14.0,85,0.00,,,0.00,,2013-02-23 18:42:00,
2013-02-23 13:52:00,37.0,34.0,30.07,WNW,283,4.0,10.0,87,0.00,,,0.00,,2013-02-23 18:52:00,
2013-02-23 14:01:00,37.0,34.0,30.06,ESE,107,5.0,9.0,87,0.00,,,0.00,,2013-02-23 19:01:00,
2013-02-23 14:11:00,37.0,34.0,30.06,ESE,107,5.0,9.0,87,0.00,,,0.00,,2013-02-23 19:11:00,
2013-02-23 14:21:00,37.0,34.0,30.06,ESE,107,5.0,9.0,87,0.00,,,0.00,,2013-02-23 19:21:00,
2013-02-23 14:32:00,37.0,33.0,30.06,East,100,5.0,13.0,86,0.00,,,0.00,,2013-02-23 19:32:00,
2013-02-23 14:42:00,37.0,33.0,30.06,East,100,5.0,13.0,86,0.00,,,0.00,,2013-02-23 19:42:00,
2013-02-23 14:52:00,37.0,33.0,30.06,NE,56,6.0,12.0,86,0.00,,,0.00,,2013-02-23 19:52:00,
2013-02-23 15:01:00,37.0,33.0,30.06,NE,46,5.0,12.0,86,0.00,,,0.00,,2013-02-23 20:01:00,
2013-02-23 15:11:00,37.0,33.0,30.06,NE,46,5.0,12.0,86,0.00,,,0.00,,2013-02-23 20:11:00,
2013-02-23 15:21:00,37.0,33.0,30.06,NE,46,5.0,12.0,86,0.00,,,0.00,,2013-02-23 20:21:00,
2013-02-23 15:32:00,36.0,33.0,30.05,ESE,106,8.0,13.0,89,0.00,,,0.00,,2013-02-23 20:32:00,
2013-02-23 15:42:00,36.0,33.0,30.05,ESE,106,8.0,13.0,89,0.00,,,0.00,,2013-02-23 20:42:00,
2013-02-23 15:53:00,36.0,33.0,30.05,ESE,106,8.0,13.0,89,0.00,,,0.00,,2013-02-23 20:53:00,
2013-02-23 16:02:00,36.0,33.0,30.02,East,83,6.0,14.0,90,0.00,,,0.00,,2013-02-23 21:02:00,
2013-02-23 16:11:00,36.0,33.0,30.02,East,83,6.0,14.0,90,0.00,,,0.00,,2013-02-23 21:11:00,
2013-02-23 16:22:00,36.0,33.0,30.02,East,101,8.0,21.0,90,0.00,,,0.00,,2013-02-23 21:22:00,
2013-02-23 16:32:00,36.0,33.0,30.01,SE,127,9.0,14.0,90,0.00,,,0.00,,2013-02-23 21:32:00,
2013-02-23 16:42:00,36.0,33.0,30.01,SE,127,9.0,14.0,90,0.00,,,0.00,,2013-02-23 21:42:00,
2013-02-23 16:52:00,36.0,33.0,30.01,ESE,111,9.0,14.0,90,0.00,,,0.00,,2013-02-23 21:52:00,
2013-02-23 17:02:00,36.0,33.0,30.01,ESE,111,9.0,14.0,90,0.00,,,0.00,,2013-02-23 22:02:00,
2013-02-23 17:11:00,36.0,33.0,30.01,ESE,111,9.0,14.0,90,0.00,,,0.00,,2013-02-23 22:11:00,
2013-02-23 17:22:00,36.0,33.0,30.01,ESE,111,9.0,14.0,90,0.00,,,0.00,,2013-02-23 22:22:00,
2013-02-23 17:32:00,35.0,33.0,30.00,East,96,5.0,11.0,92,0.01,,,0.01,,2013-02-23 22:32:00,
2013-02-23 17:42:00,35.0,33.0,30.00,East,96,5.0,11.0,92,0.01,,,0.01,,2013-02-23 22:42:00,
2013-02-23 17:52:00,35.0,33.0,30.00,East,96,5.0,11.0,92,0.01,,,0.01,,2013-02-23 22:52:00,
2013-02-23 18:01:00,35.0,33.0,30.00,East,96,5.0,11.0,92,0.01,,,0.01,,2013-02-23 23:01:00,
2013-02-23 18:11:00,35.0,33.0,30.00,East,96,5.0,11.0,92,0.01,,,0.01,,2013-02-23 23:11:00,
2013-02-23 18:22:00,35.0,33.0,29.98,East,95,6.0,12.0,93,0.04,,,0.05,,2013-02-23 23:22:00,
2013-02-23 18:32:00,35.0,33.0,29.98,East,85,6.0,11.0,94,0.06,,,0.07,,2013-02-23 23:32:00,
2013-02-23 18:42:00,35.0,33.0,29.98,East,85,6.0,11.0,94,0.06,,,0.07,,2013-02-23 23:42:00,
2013-02-23 18:52:00,35.0,33.0,29.98,East,85,6.0,11.0,94,0.06,,,0.07,,2013-02-23 23:52:00,
2013-02-23 19:02:00,35.0,33.0,29.97,ENE,74,4.0,8.0,94,0.05,,,0.09,,2013-02-24 00:02:00,
2013-02-23 19:11:00,35.0,33.0,29.97,ENE,74,4.0,8.0,94,0.05,,,0.09,,2013-02-24 00:11:00,
2013-02-23 19:22:00,35.0,33.0,29.97,ENE,74,4.0,8.0,94,0.05,,,0.09,,2013-02-24 00:22:00,
2013-02-23 19:32:00,35.0,34.0,29.95,ENE,75,7.0,10.0,95,0.05,,,0.12,,2013-02-24 00:32:00,
2013-02-23 19:42:00,35.0,34.0,29.95,ENE,75,7.0,10.0,95,0.05,,,0.12,,2013-02-24 00:42:00,
2013-02-23 19:52:00,35.0,34.0,29.95,ENE,70,7.0,11.0,95,0.05,,,0.13,,2013-02-24 00:52:00,
2013-02-23 20:01:00,35.0,34.0,29.93,NE,56,7.0,12.0,95,0.05,,,0.14,,2013-02-24 01:01:00,
2013-02-23 20:11:00,35.0,34.0,29.93,NE,56,7.0,12.0,95,0.05,,,0.14,,2013-02-24 01:11:00,
2013-02-23 20:22:00,35.0,34.0,29.93,ENE,76,6.0,11.0,95,0.04,,,0.14,,2013-02-24 01:22:00,
2013-02-23 20:32:00,35.0,34.0,29.91,ESE,107,9.0,13.0,96,0.02,,,0.14,,2013-02-24 01:32:00,
2013-02-23 20:42:00,35.0,34.0,29.91,ESE,107,9.0,13.0,96,0.02,,,0.14,,2013-02-24 01:42:00,
2013-02-23 20:52:00,35.0,34.0,29.92,East,82,7.0,11.0,95,0.01,,,0.14,,2013-02-24 01:52:00,
2013-02-23 21:01:00,35.0,34.0,29.92,East,82,7.0,11.0,95,0.01,,,0.14,,2013-02-24 02:01:00,
2013-02-23 21:11:00,35.0,34.0,29.92,East,82,7.0,11.0,95,0.01,,,0.14,,2013-02-24 02:11:00,
2013-02-23 21:22:00,35.0,34.0,29.92,East,82,7.0,11.0,95,0.01,,,0.14,,2013-02-24 02:22:00,
2013-02-23 21:32:00,35.0,34.0,29.90,NE,56,8.0,10.0,96,0.01,,,0.15,,2013-02-24 02:32:00,
2013-02-23 21:42:00,35.0,34.0,29.90,NE,56,8.0,10.0,96,0.01,,,0.15,,2013-02-24 02:42:00,
2013-02-23 21:52:00,35.0,34.0,29.89,NE,47,6.0,11.0,96,0.01,,,0.15,,2013-02-24 02:52:00,
2013-02-23 22:02:00,35.0,34.0,29.88,ENE,61,7.0,11.0,96,0.02,,,0.16,,2013-02-24 03:02:00,
2013-02-23 22:11:00,35.0,34.0,29.88,ENE,61,7.0,11.0,96,0.02,,,0.16,,2013-02-24 03:11:00,
2013-02-23 22:22:00,35.0,34.0,29.87,NE,42,7.0,11.0,96,0.02,,,0.17,,2013-02-24 03:22:00,
2013-02-23 22:32:00,35.0,34.0,29.87,NE,42,7.0,11.0,96,0.02,,,0.17,,2013-02-24 03:32:00,
2013-02-23 22:42:00,35.0,34.0,29.87,NE,42,7.0,11.0,96,0.02,,,0.17,,2013-02-24 03:42:00,
2013-02-23 22:52:00,35.0,34.0,29.83,ENE,72,10.0,13.0,96,0.05,,,0.20,,2013-02-24 03:52:00,
2013-02-23 23:02:00,35.0,34.0,29.83,NE,39,9.0,13.0,97,0.05,,,0.21,,2013-02-24 04:02:00,
2013-02-23 23:11:00,35.0,34.0,29.83,NE,39,9.0,13.0,97,0.05,,,0.21,,2013-02-24 04:11:00,
2013-02-23 23:21:00,35.0,34.0,29.82,NNE,30,8.0,13.0,96,0.04,,,0.21,,2013-02-24 04:21:00,
2013-02-23 23:32:00,35.0,34.0,29.80,NNE,23,8.0,14.0,97,0.03,,,0.22,,2013-02-24 04:32:00,
2013-02-23 23:42:00,35.0,34.0,29.80,NNE,23,8.0,14.0,97,0.03,,,0.22,,2013-02-24 04:42:00,
2013-02-23 23:52:00,35.0,34.0,29.80,NE,40,10.0,16.0,97,0.03,,,0.23,,2013-02-24 04:52:00,